sat.trackr.live / text

‹ back to catalog

HYLAS 4

NORAD 43272 · 2018-033B

PAYLOAD ACTIVE UNKNOWN

§ Identity

Operator
Country
UK
Launch date
2018-04-05
Launch site
FRGUI
Launch vehicle
Mass (kg)
RCS (m²)

Purposes: comms

External: N2YO · Heavens-Above · Gunter

§ Orbital elements

Epoch: 2026-09-12T00:03:38.916000Z

Period
1,436.11 min
Inclination
0.0807°
Eccentricity
0.0001098
Mean motion
1.00270762 rev/d
Perigee alt
35,782.3 km
Apogee alt
35,791.5 km
Semi-major
42,165.0 km
B*
0.0000e+0
RAAN
269.3449°
Arg perigee
281.4157°
Mean anomaly
127.6457°
Rev number
3,093

§ Raw data

HYLAS 41 43272U 18033B   26255.00253375 -.00000249  00000+0  00000+0 0  99922 43272   0.0807 269.3449 0001098 281.4157 127.6457  1.00270762 30930

JSON: /api/v1/satellites/43272 · /tle

For live sub-satellite position, see the globe view (requires WebGL).

§ Visibility from observer

Set your observer location to see the next 7 days of passes ≥ 10°. The values pass through the URL so the page stays shareable.

No JS? Fill the form by hand. The geolocation button needs JavaScript.